GJOHN KSFO-KOTH

Flight info

Callsign GJOHN
Flight time 3h 12m
Altitude 8500
Route SAN FRANCISCO INTL VPSCS VPSSP VPSLM SAU VPSSR POINT REYES SANTA ROSA CLOVERDALE UKIAK WILLITS GARBERVILLE FORTUNA MYRTLETOWN MCKINLEYVILLE KLAMATH CRESENT CITY
Aircraft C182/L-VGDW/C

Departure

Time 2026-04-24 19:01
Airport San Francisco International Airport (KSFO)

Arrival

Time 2026-04-24 22:13
Airport Southwest Oregon Regional Airport (KOTH)
Time Latitude Longitude Altitude Speed Heading
2026-04-24 18:57 37.62795 -122.38446 17 ft 0 kts 184°
2026-04-24 18:57 37.62754 -122.38447 17 ft 12 kts 182°
2026-04-24 18:57 37.62658 -122.38453 17 ft 13 kts 131°
2026-04-24 18:58 37.62605 -122.38321 17 ft 23 kts 116°
2026-04-24 18:58 37.62519 -122.38119 17 ft 27 kts 118°
2026-04-24 18:58 37.62437 -122.37922 17 ft 23 kts 117°
2026-04-24 18:58 37.62360 -122.37739 17 ft 28 kts 118°
2026-04-24 18:59 37.62279 -122.37550 17 ft 15 kts 120°
2026-04-24 18:59 37.62201 -122.37589 17 ft 22 kts 228°
2026-04-24 18:59 37.62102 -122.37737 17 ft 21 kts 227°
2026-04-24 18:59 37.62027 -122.37861 17 ft 13 kts 274°
2026-04-24 19:00 37.62086 -122.38013 17 ft 43 kts 296°
2026-04-24 19:00 37.62300 -122.38528 86 ft 79 kts 297°
2026-04-24 19:00 37.62578 -122.39175 301 ft 88 kts 297°
2026-04-24 19:00 37.62864 -122.39924 369 ft 108 kts 289°
2026-04-24 19:01 37.63028 -122.40834 515 ft 98 kts 267°
2026-04-24 19:01 37.62687 -122.41446 715 ft 89 kts 213°
2026-04-24 19:01 37.62119 -122.41803 955 ft 93 kts 214°
2026-04-24 19:01 37.61557 -122.42264 1188 ft 99 kts 219°
2026-04-24 19:02 37.61233 -122.42656 1338 ft 98 kts 240°
2026-04-24 19:02 37.61342 -122.43734 1635 ft 102 kts 307°
2026-04-24 19:02 37.61815 -122.44419 1866 ft 105 kts 306°
2026-04-24 19:02 37.62226 -122.45181 2096 ft 106 kts 300°
2026-04-24 19:03 37.62614 -122.46025 2331 ft 117 kts 298°
2026-04-24 19:03 37.63012 -122.46946 2552 ft 122 kts 297°
2026-04-24 19:03 37.63415 -122.47895 2778 ft 124 kts 297°
2026-04-24 19:03 37.63827 -122.48857 3003 ft 126 kts 300°
2026-04-24 19:04 37.64509 -122.49527 3211 ft 129 kts 341°
2026-04-24 19:04 37.65382 -122.49664 3433 ft 124 kts 356°
2026-04-24 19:04 37.65959 -122.49693 3585 ft 122 kts 356°
2026-04-24 19:04 37.66792 -122.49744 3808 ft 119 kts 355°
2026-04-24 19:05 37.67609 -122.49811 4029 ft 117 kts 354°
2026-04-24 19:05 37.68414 -122.49885 4250 ft 115 kts 355°
2026-04-24 19:05 37.69210 -122.49963 4471 ft 114 kts 354°
2026-04-24 19:05 37.69996 -122.50040 4691 ft 113 kts 355°
2026-04-24 19:06 37.70791 -122.50119 4921 ft 118 kts 355°
2026-04-24 19:06 37.71621 -122.50202 5146 ft 123 kts 355°
2026-04-24 19:06 37.72484 -122.50301 5373 ft 126 kts 354°
2026-04-24 19:06 37.73373 -122.50427 5604 ft 128 kts 354°
2026-04-24 19:07 37.74260 -122.50559 5830 ft 129 kts 354°
2026-04-24 19:07 37.75151 -122.50693 6061 ft 129 kts 354°
2026-04-24 19:07 37.76051 -122.50830 6286 ft 131 kts 354°
2026-04-24 19:07 37.76960 -122.50968 6511 ft 132 kts 354°
2026-04-24 19:08 37.77873 -122.51107 6736 ft 133 kts 354°
2026-04-24 19:08 37.78764 -122.51243 6950 ft 126 kts 354°
2026-04-24 19:08 37.79612 -122.51373 7171 ft 121 kts 354°
2026-04-24 19:08 37.80431 -122.51498 7389 ft 117 kts 354°
2026-04-24 19:09 37.81229 -122.51620 7608 ft 114 kts 353°
2026-04-24 19:09 37.82001 -122.51737 7822 ft 109 kts 353°
2026-04-24 19:09 37.82738 -122.51850 8035 ft 104 kts 353°
2026-04-24 19:09 37.83442 -122.51958 8250 ft 100 kts 353°
2026-04-24 19:10 37.84118 -122.52061 8466 ft 95 kts 353°
2026-04-24 19:10 37.84830 -122.52170 8500 ft 111 kts 353°
2026-04-24 19:10 37.85639 -122.52273 8514 ft 121 kts 356°
2026-04-24 19:10 37.86478 -122.52351 8509 ft 122 kts 357°
2026-04-24 19:11 37.87326 -122.52423 8507 ft 123 kts 357°
2026-04-24 19:11 37.88195 -122.52495 8507 ft 130 kts 357°
2026-04-24 19:11 37.89112 -122.52571 8501 ft 134 kts 357°
2026-04-24 19:11 37.89917 -122.52638 8500 ft 137 kts 357°
2026-04-24 19:12 37.90869 -122.52717 8500 ft 138 kts 357°
2026-04-24 19:12 37.91809 -122.52795 8496 ft 133 kts 357°
2026-04-24 19:12 37.92716 -122.52870 8499 ft 129 kts 357°
2026-04-24 19:12 37.93605 -122.52944 8499 ft 127 kts 357°
2026-04-24 19:13 37.94197 -122.52993 8499 ft 126 kts 357°
2026-04-24 19:13 37.95352 -122.53088 8497 ft 123 kts 358°
2026-04-24 19:13 37.96195 -122.53158 8497 ft 120 kts 358°
2026-04-24 19:13 37.97022 -122.53233 8496 ft 119 kts 354°
2026-04-24 19:14 37.97718 -122.53745 8488 ft 118 kts 307°
2026-04-24 19:14 37.98071 -122.54687 8508 ft 123 kts 291°
2026-04-24 19:14 37.98397 -122.55719 8508 ft 130 kts 291°
2026-04-24 19:14 37.98752 -122.56787 8509 ft 134 kts 292°
2026-04-24 19:15 37.99127 -122.57877 8510 ft 136 kts 293°
2026-04-24 19:15 37.99504 -122.58957 8507 ft 134 kts 293°
2026-04-24 19:15 37.99884 -122.60038 8497 ft 135 kts 293°
2026-04-24 19:15 38.00268 -122.61126 8492 ft 136 kts 293°
2026-04-24 19:16 38.01035 -122.63299 8489 ft 131 kts 293°
2026-04-24 19:16 38.01404 -122.64342 8489 ft 129 kts 293°
2026-04-24 19:16 38.01766 -122.65367 8490 ft 127 kts 293°
2026-04-24 19:17 38.02126 -122.66386 8489 ft 126 kts 293°
2026-04-24 19:17 38.02480 -122.67388 8489 ft 123 kts 293°
2026-04-24 19:17 38.02826 -122.68368 8489 ft 121 kts 293°
2026-04-24 19:17 38.03167 -122.69335 8489 ft 120 kts 293°
2026-04-24 19:18 38.03504 -122.70291 8489 ft 119 kts 293°
2026-04-24 19:18 38.03840 -122.71243 8490 ft 118 kts 293°
2026-04-24 19:18 38.04173 -122.72188 8490 ft 117 kts 293°
2026-04-24 19:18 38.04506 -122.73131 8490 ft 117 kts 293°
2026-04-24 19:19 38.04837 -122.74071 8491 ft 117 kts 293°
2026-04-24 19:19 38.05167 -122.75010 8492 ft 117 kts 293°
2026-04-24 19:19 38.05501 -122.75959 8492 ft 117 kts 293°
2026-04-24 19:19 38.05832 -122.76896 8492 ft 116 kts 293°
2026-04-24 19:20 38.06161 -122.77832 8492 ft 116 kts 293°
2026-04-24 19:20 38.06491 -122.78768 8493 ft 116 kts 293°
2026-04-24 19:20 38.06820 -122.79703 8493 ft 116 kts 293°
2026-04-24 19:20 38.07220 -122.80585 8492 ft 117 kts 316°
2026-04-24 19:21 38.07963 -122.80916 8496 ft 115 kts
2026-04-24 19:21 38.08757 -122.80857 8508 ft 114 kts
2026-04-24 19:21 38.09549 -122.80806 8514 ft 114 kts
2026-04-24 19:21 38.10345 -122.80782 8514 ft 115 kts
2026-04-24 19:22 38.10885 -122.80775 8513 ft 115 kts
2026-04-24 19:22 38.11950 -122.80772 8512 ft 116 kts
2026-04-24 19:22 38.12756 -122.80775 8507 ft 116 kts
2026-04-24 19:22 38.13563 -122.80780 8504 ft 116 kts
2026-04-24 19:23 38.14374 -122.80785 8503 ft 116 kts
2026-04-24 19:23 38.15193 -122.80791 8502 ft 116 kts
2026-04-24 19:23 38.16004 -122.80797 8497 ft 117 kts
2026-04-24 19:23 38.16815 -122.80804 8496 ft 117 kts
2026-04-24 19:24 38.17624 -122.80810 8495 ft 117 kts
2026-04-24 19:24 38.18433 -122.80816 8495 ft 116 kts
2026-04-24 19:24 38.19242 -122.80822 8495 ft 116 kts
2026-04-24 19:24 38.20049 -122.80829 8496 ft 116 kts
2026-04-24 19:25 38.20855 -122.80835 8496 ft 116 kts
2026-04-24 19:25 38.21659 -122.80841 8496 ft 116 kts
2026-04-24 19:25 38.22461 -122.80848 8496 ft 116 kts
2026-04-24 19:25 38.23264 -122.80854 8496 ft 116 kts
2026-04-24 19:26 38.24067 -122.80860 8495 ft 116 kts
2026-04-24 19:26 38.24870 -122.80866 8495 ft 116 kts
2026-04-24 19:26 38.25681 -122.80873 8498 ft 115 kts
2026-04-24 19:26 38.26473 -122.80879 8499 ft 115 kts
2026-04-24 19:27 38.27284 -122.80885 8499 ft 115 kts
2026-04-24 19:27 38.28086 -122.80892 8499 ft 115 kts
2026-04-24 19:27 38.28887 -122.80898 8499 ft 115 kts
2026-04-24 19:27 38.29688 -122.80904 8499 ft 115 kts
2026-04-24 19:28 38.30489 -122.80910 8499 ft 115 kts
2026-04-24 19:28 38.31291 -122.80917 8498 ft 115 kts
2026-04-24 19:28 38.32093 -122.80923 8498 ft 115 kts
2026-04-24 19:28 38.32896 -122.80929 8498 ft 115 kts
2026-04-24 19:29 38.34501 -122.80942 8497 ft 116 kts
2026-04-24 19:29 38.35303 -122.80948 8497 ft 116 kts
2026-04-24 19:29 38.36105 -122.80954 8497 ft 116 kts
2026-04-24 19:30 38.36918 -122.80961 8496 ft 116 kts
2026-04-24 19:30 38.37722 -122.80967 8495 ft 116 kts
2026-04-24 19:30 38.38526 -122.80973 8493 ft 116 kts
2026-04-24 19:30 38.39330 -122.80979 8493 ft 116 kts
2026-04-24 19:31 38.40132 -122.80986 8493 ft 116 kts
2026-04-24 19:31 38.40935 -122.80992 8493 ft 116 kts
2026-04-24 19:31 38.41739 -122.80998 8493 ft 116 kts
2026-04-24 19:31 38.42541 -122.81004 8493 ft 116 kts
2026-04-24 19:32 38.43344 -122.81011 8499 ft 116 kts
2026-04-24 19:32 38.44149 -122.81017 8501 ft 116 kts
2026-04-24 19:32 38.44961 -122.81023 8501 ft 117 kts
2026-04-24 19:32 38.45777 -122.81029 8502 ft 117 kts
2026-04-24 19:33 38.46594 -122.81035 8502 ft 118 kts
2026-04-24 19:33 38.47416 -122.81042 8501 ft 118 kts
2026-04-24 19:33 38.48235 -122.81048 8502 ft 118 kts
2026-04-24 19:33 38.49057 -122.81054 8501 ft 118 kts
2026-04-24 19:34 38.49877 -122.81059 8501 ft 118 kts
2026-04-24 19:34 38.50696 -122.81139 8499 ft 119 kts 346°
2026-04-24 19:34 38.51477 -122.81522 8501 ft 119 kts 337°
2026-04-24 19:34 38.52228 -122.81962 8501 ft 119 kts 335°
2026-04-24 19:35 38.52975 -122.82414 8501 ft 119 kts 335°
2026-04-24 19:35 38.53719 -122.82869 8501 ft 119 kts 335°
2026-04-24 19:35 38.54465 -122.83328 8501 ft 119 kts 335°
2026-04-24 19:35 38.55209 -122.83787 8501 ft 119 kts 335°
2026-04-24 19:36 38.55954 -122.84247 8501 ft 119 kts 335°
2026-04-24 19:36 38.56699 -122.84708 8501 ft 119 kts 335°
2026-04-24 19:36 38.57443 -122.85169 8500 ft 119 kts 335°
2026-04-24 19:36 38.58189 -122.85630 8500 ft 119 kts 335°
2026-04-24 19:37 38.58933 -122.86092 8500 ft 119 kts 335°
2026-04-24 19:37 38.59678 -122.86553 8499 ft 119 kts 335°
2026-04-24 19:37 38.60422 -122.87014 8499 ft 119 kts 335°
2026-04-24 19:37 38.61177 -122.87482 8499 ft 119 kts 335°
2026-04-24 19:38 38.61923 -122.87944 8498 ft 119 kts 335°
2026-04-24 19:38 38.62668 -122.88406 8497 ft 119 kts 335°
2026-04-24 19:38 38.63412 -122.88869 8497 ft 119 kts 335°
2026-04-24 19:38 38.64158 -122.89331 8496 ft 119 kts 335°
2026-04-24 19:39 38.64903 -122.89793 8496 ft 119 kts 335°
2026-04-24 19:39 38.65650 -122.90257 8495 ft 119 kts 335°
2026-04-24 19:39 38.66395 -122.90720 8494 ft 119 kts 335°
2026-04-24 19:39 38.67139 -122.91182 8494 ft 119 kts 335°
2026-04-24 19:40 38.67886 -122.91646 8493 ft 119 kts 335°
2026-04-24 19:40 38.68629 -122.92108 8496 ft 119 kts 335°
2026-04-24 19:40 38.69373 -122.92570 8498 ft 119 kts 335°
2026-04-24 19:40 38.70115 -122.93032 8498 ft 119 kts 335°
2026-04-24 19:41 38.70860 -122.93494 8498 ft 119 kts 335°
2026-04-24 19:41 38.71614 -122.93963 8497 ft 119 kts 335°
2026-04-24 19:41 38.72358 -122.94426 8496 ft 119 kts 335°
2026-04-24 19:41 38.73103 -122.94890 8495 ft 119 kts 335°
2026-04-24 19:42 38.73848 -122.95354 8494 ft 119 kts 335°
2026-04-24 19:42 38.74594 -122.95818 8492 ft 119 kts 335°
2026-04-24 19:42 38.75339 -122.96282 8491 ft 119 kts 335°
2026-04-24 19:42 38.76087 -122.96748 8490 ft 119 kts 335°
2026-04-24 19:43 38.76831 -122.97211 8489 ft 119 kts 335°
2026-04-24 19:43 38.77577 -122.97676 8488 ft 119 kts 335°
2026-04-24 19:43 38.78324 -122.98142 8486 ft 119 kts 335°
2026-04-24 19:43 38.79070 -122.98606 8485 ft 119 kts 335°
2026-04-24 19:44 38.79816 -122.99072 8484 ft 119 kts 335°
2026-04-24 19:44 38.80563 -122.99538 8482 ft 120 kts 335°
2026-04-24 19:44 38.81320 -123.00010 8481 ft 120 kts 335°
2026-04-24 19:44 38.82066 -123.00476 8479 ft 120 kts 335°
2026-04-24 19:45 38.82813 -123.00942 8478 ft 120 kts 335°
2026-04-24 19:45 38.83558 -123.01407 8477 ft 120 kts 335°
2026-04-24 19:45 38.84305 -123.01873 8475 ft 120 kts 335°
2026-04-24 19:45 38.85051 -123.02339 8474 ft 120 kts 335°
2026-04-24 19:46 38.85799 -123.02806 8473 ft 120 kts 335°
2026-04-24 19:46 38.86545 -123.03272 8471 ft 120 kts 335°
2026-04-24 19:46 38.87291 -123.03739 8470 ft 120 kts 335°
2026-04-24 19:46 38.88037 -123.04206 8468 ft 120 kts 335°
2026-04-24 19:47 38.88784 -123.04672 8468 ft 119 kts 335°
2026-04-24 19:47 38.89530 -123.05139 8466 ft 120 kts 335°
2026-04-24 19:47 38.90276 -123.05606 8465 ft 120 kts 335°
2026-04-24 19:47 38.91033 -123.06079 8464 ft 120 kts 335°
2026-04-24 19:48 38.91778 -123.06546 8463 ft 120 kts 335°
2026-04-24 19:48 38.92526 -123.07014 8461 ft 120 kts 335°
2026-04-24 19:48 38.94016 -123.07947 8460 ft 119 kts 335°
2026-04-24 19:49 38.95508 -123.08882 8458 ft 119 kts 335°
2026-04-24 19:49 38.96999 -123.09816 8456 ft 119 kts 335°
2026-04-24 19:50 38.99236 -123.11219 8454 ft 119 kts 335°
2026-04-24 19:50 38.99983 -123.11688 8454 ft 119 kts 335°
2026-04-24 19:51 39.01482 -123.12629 8453 ft 119 kts 335°
2026-04-24 19:51 39.02228 -123.13098 8453 ft 119 kts 335°
2026-04-24 19:52 39.03717 -123.14033 8452 ft 119 kts 335°
2026-04-24 19:52 39.04461 -123.14501 8452 ft 119 kts 335°
2026-04-24 19:52 39.05207 -123.14969 8451 ft 119 kts 335°
2026-04-24 19:52 39.05952 -123.15438 8451 ft 119 kts 335°
2026-04-24 19:53 39.06695 -123.15905 8451 ft 119 kts 335°
2026-04-24 19:53 39.07442 -123.16375 8451 ft 119 kts 335°
2026-04-24 19:53 39.08930 -123.17311 8450 ft 119 kts 335°
2026-04-24 19:54 39.09684 -123.17786 8450 ft 119 kts 335°
2026-04-24 19:54 39.10424 -123.18252 8476 ft 117 kts 335°
2026-04-24 19:54 39.11150 -123.18709 8493 ft 116 kts 335°
2026-04-24 19:54 39.11877 -123.19167 8498 ft 117 kts 335°
2026-04-24 19:55 39.12115 -123.19316 8499 ft 117 kts 335°
2026-04-24 19:55 39.13342 -123.20089 8501 ft 118 kts 335°
2026-04-24 19:55 39.14078 -123.20554 8501 ft 118 kts 335°
2026-04-24 19:55 39.14818 -123.21020 8501 ft 119 kts 335°
2026-04-24 19:56 39.15559 -123.21487 8501 ft 119 kts 335°
2026-04-24 19:56 39.16302 -123.21956 8502 ft 120 kts 335°
2026-04-24 19:56 39.17055 -123.22432 8502 ft 121 kts 334°
2026-04-24 19:56 39.17812 -123.22909 8502 ft 122 kts 335°
2026-04-24 19:57 39.18574 -123.23390 8502 ft 122 kts 335°
2026-04-24 19:57 39.19088 -123.23715 8502 ft 122 kts 335°
2026-04-24 19:57 39.20089 -123.24348 8501 ft 121 kts 335°
2026-04-24 19:57 39.20597 -123.24668 8501 ft 120 kts 335°
2026-04-24 19:58 39.21347 -123.25142 8500 ft 120 kts 335°
2026-04-24 19:58 39.22095 -123.25615 8500 ft 120 kts 335°
2026-04-24 19:58 39.22843 -123.26087 8500 ft 120 kts 335°
2026-04-24 19:58 39.23588 -123.26558 8501 ft 119 kts 335°
2026-04-24 19:59 39.24333 -123.27029 8501 ft 119 kts 335°
2026-04-24 19:59 39.25077 -123.27500 8501 ft 119 kts 335°
2026-04-24 19:59 39.25821 -123.27970 8501 ft 119 kts 335°
2026-04-24 19:59 39.26567 -123.28442 8501 ft 119 kts 335°
2026-04-24 20:00 39.27311 -123.28913 8501 ft 119 kts 335°
2026-04-24 20:00 39.28053 -123.29383 8500 ft 119 kts 335°
2026-04-24 20:00 39.28797 -123.29854 8500 ft 119 kts 335°
2026-04-24 20:00 39.29540 -123.30325 8500 ft 119 kts 335°
2026-04-24 20:01 39.30282 -123.30796 8500 ft 119 kts 335°
2026-04-24 20:01 39.31027 -123.31267 8500 ft 119 kts 335°
2026-04-24 20:01 39.31779 -123.31744 8500 ft 119 kts 335°
2026-04-24 20:01 39.32522 -123.32215 8500 ft 119 kts 335°
2026-04-24 20:02 39.33265 -123.32686 8500 ft 119 kts 335°
2026-04-24 20:02 39.34008 -123.33158 8500 ft 119 kts 335°
2026-04-24 20:02 39.34750 -123.33629 8500 ft 119 kts 335°
2026-04-24 20:02 39.35494 -123.34101 8500 ft 119 kts 335°
2026-04-24 20:03 39.36238 -123.34573 8501 ft 119 kts 335°
2026-04-24 20:03 39.36983 -123.35046 8501 ft 120 kts 335°
2026-04-24 20:03 39.37729 -123.35520 8501 ft 120 kts 335°
2026-04-24 20:03 39.38475 -123.35994 8502 ft 120 kts 335°
2026-04-24 20:04 39.39222 -123.36469 8501 ft 120 kts 335°
2026-04-24 20:04 39.39971 -123.36944 8502 ft 120 kts 335°
2026-04-24 20:04 39.40718 -123.37420 8502 ft 120 kts 335°
2026-04-24 20:04 39.41466 -123.37896 8502 ft 120 kts 335°
2026-04-24 20:05 39.42224 -123.38377 8502 ft 120 kts 335°
2026-04-24 20:05 39.42972 -123.38853 8502 ft 120 kts 335°
2026-04-24 20:05 39.43720 -123.39329 8502 ft 120 kts 335°
2026-04-24 20:05 39.44468 -123.39805 8502 ft 120 kts 335°
2026-04-24 20:06 39.45216 -123.40281 8503 ft 120 kts 335°
2026-04-24 20:06 39.45965 -123.40758 8503 ft 120 kts 335°
2026-04-24 20:06 39.46712 -123.41234 8503 ft 120 kts 335°
2026-04-24 20:06 39.47460 -123.41711 8503 ft 120 kts 335°
2026-04-24 20:07 39.47966 -123.42033 8503 ft 120 kts 335°
2026-04-24 20:07 39.48957 -123.42665 8504 ft 120 kts 335°
2026-04-24 20:07 39.49705 -123.43142 8504 ft 120 kts 335°
2026-04-24 20:07 39.50453 -123.43619 8504 ft 120 kts 335°
2026-04-24 20:08 39.51210 -123.44101 8505 ft 120 kts 335°
2026-04-24 20:08 39.51958 -123.44579 8506 ft 120 kts 335°
2026-04-24 20:08 39.52704 -123.45055 8506 ft 120 kts 335°
2026-04-24 20:08 39.53452 -123.45532 8506 ft 120 kts 335°
2026-04-24 20:09 39.54200 -123.46010 8507 ft 120 kts 335°
2026-04-24 20:09 39.54948 -123.46488 8507 ft 120 kts 335°
2026-04-24 20:09 39.55697 -123.46966 8507 ft 120 kts 335°
2026-04-24 20:09 39.56445 -123.47444 8508 ft 120 kts 335°
2026-04-24 20:10 39.57192 -123.47922 8508 ft 120 kts 335°
2026-04-24 20:10 39.57940 -123.48400 8508 ft 120 kts 335°
2026-04-24 20:10 39.58689 -123.48878 8509 ft 120 kts 335°
2026-04-24 20:10 39.59436 -123.49356 8509 ft 120 kts 335°
2026-04-24 20:11 39.60194 -123.49841 8509 ft 120 kts 335°
2026-04-24 20:11 39.60942 -123.50320 8510 ft 120 kts 335°
2026-04-24 20:11 39.61691 -123.50799 8510 ft 120 kts 335°
2026-04-24 20:11 39.62438 -123.51277 8510 ft 120 kts 335°
2026-04-24 20:12 39.63185 -123.51756 8511 ft 120 kts 335°
2026-04-24 20:12 39.63934 -123.52235 8511 ft 120 kts 335°
2026-04-24 20:12 39.64681 -123.52714 8511 ft 120 kts 335°
2026-04-24 20:12 39.65428 -123.53193 8512 ft 120 kts 335°
2026-04-24 20:13 39.66176 -123.53672 8512 ft 120 kts 335°
2026-04-24 20:13 39.66923 -123.54151 8513 ft 120 kts 335°
2026-04-24 20:13 39.67671 -123.54631 8513 ft 120 kts 335°
2026-04-24 20:13 39.68420 -123.55111 8513 ft 120 kts 335°
2026-04-24 20:14 39.69168 -123.55591 8514 ft 120 kts 335°
2026-04-24 20:14 39.69916 -123.56071 8514 ft 120 kts 335°
2026-04-24 20:14 39.70673 -123.56557 8515 ft 120 kts 335°
2026-04-24 20:14 39.71420 -123.57037 8515 ft 120 kts 335°
2026-04-24 20:15 39.72168 -123.57517 8515 ft 120 kts 335°
2026-04-24 20:15 39.72915 -123.57997 8516 ft 120 kts 335°
2026-04-24 20:15 39.73663 -123.58478 8516 ft 120 kts 335°
2026-04-24 20:15 39.74411 -123.58958 8514 ft 120 kts 335°
2026-04-24 20:16 39.75166 -123.59444 8503 ft 121 kts 335°
2026-04-24 20:16 39.75922 -123.59930 8500 ft 122 kts 335°
2026-04-24 20:16 39.76677 -123.60416 8500 ft 121 kts 335°
2026-04-24 20:16 39.77434 -123.60903 8500 ft 121 kts 335°
2026-04-24 20:17 39.78187 -123.61388 8501 ft 121 kts 335°
2026-04-24 20:17 39.79696 -123.62359 8502 ft 121 kts 335°
2026-04-24 20:17 39.80459 -123.62850 8503 ft 121 kts 335°
2026-04-24 20:18 39.80959 -123.63172 8503 ft 121 kts 335°
2026-04-24 20:18 39.81965 -123.63820 8504 ft 121 kts 335°
2026-04-24 20:18 39.82719 -123.64306 8505 ft 121 kts 335°
2026-04-24 20:18 39.83470 -123.64790 8505 ft 121 kts 335°
2026-04-24 20:19 39.84223 -123.65276 8506 ft 121 kts 335°
2026-04-24 20:19 39.84977 -123.65762 8507 ft 121 kts 335°
2026-04-24 20:19 39.85730 -123.66247 8508 ft 121 kts 335°
2026-04-24 20:19 39.86482 -123.66733 8508 ft 121 kts 335°
2026-04-24 20:20 39.87234 -123.67218 8509 ft 121 kts 335°
2026-04-24 20:20 39.87989 -123.67705 8510 ft 121 kts 335°
2026-04-24 20:20 39.88740 -123.68191 8510 ft 121 kts 335°
2026-04-24 20:20 39.89493 -123.68677 8511 ft 121 kts 335°
2026-04-24 20:21 39.90246 -123.69163 8512 ft 121 kts 335°
2026-04-24 20:21 39.91008 -123.69655 8512 ft 121 kts 335°
2026-04-24 20:21 39.91760 -123.70141 8513 ft 121 kts 335°
2026-04-24 20:21 39.92512 -123.70628 8514 ft 121 kts 335°
2026-04-24 20:22 39.93266 -123.71115 8514 ft 121 kts 335°
2026-04-24 20:22 39.94017 -123.71601 8515 ft 121 kts 335°
2026-04-24 20:22 39.94771 -123.72089 8516 ft 121 kts 335°
2026-04-24 20:22 39.95522 -123.72575 8517 ft 121 kts 335°
2026-04-24 20:23 39.96274 -123.73062 8517 ft 121 kts 335°
2026-04-24 20:23 39.97026 -123.73548 8518 ft 121 kts 335°
2026-04-24 20:23 39.97779 -123.74036 8519 ft 121 kts 335°
2026-04-24 20:23 39.98532 -123.74524 8519 ft 121 kts 335°
2026-04-24 20:24 39.99039 -123.74852 8520 ft 121 kts 335°
2026-04-24 20:24 40.00036 -123.75499 8521 ft 121 kts 335°
2026-04-24 20:24 40.00793 -123.75988 8524 ft 119 kts 334°
2026-04-24 20:24 40.01531 -123.76467 8524 ft 118 kts 334°
2026-04-24 20:25 40.02263 -123.76941 8524 ft 117 kts 334°
2026-04-24 20:25 40.02990 -123.77413 8524 ft 117 kts 334°
2026-04-24 20:25 40.03716 -123.77883 8524 ft 117 kts 334°
2026-04-24 20:25 40.04439 -123.78353 8524 ft 116 kts 334°
2026-04-24 20:26 40.05163 -123.78823 8525 ft 116 kts 334°
2026-04-24 20:26 40.05887 -123.79292 8525 ft 116 kts 334°
2026-04-24 20:26 40.06611 -123.79762 8526 ft 116 kts 334°
2026-04-24 20:26 40.07332 -123.80231 8527 ft 116 kts 334°
2026-04-24 20:27 40.08055 -123.80700 8528 ft 116 kts 334°
2026-04-24 20:27 40.08787 -123.81176 8529 ft 116 kts 334°
2026-04-24 20:27 40.09500 -123.81640 8530 ft 116 kts 334°
2026-04-24 20:27 40.10231 -123.82115 8530 ft 116 kts 334°
2026-04-24 20:28 40.10952 -123.82584 8531 ft 116 kts 334°
2026-04-24 20:28 40.11675 -123.83055 8532 ft 116 kts 334°
2026-04-24 20:28 40.12397 -123.83524 8532 ft 116 kts 334°
2026-04-24 20:28 40.13119 -123.83994 8533 ft 116 kts 334°
2026-04-24 20:29 40.13596 -123.84305 8533 ft 116 kts 334°
2026-04-24 20:29 40.14564 -123.84935 8534 ft 116 kts 334°
2026-04-24 20:29 40.15287 -123.85406 8535 ft 116 kts 334°
2026-04-24 20:29 40.16008 -123.85875 8536 ft 116 kts 334°
2026-04-24 20:30 40.16731 -123.86347 8536 ft 116 kts 334°
2026-04-24 20:30 40.17453 -123.86817 8536 ft 116 kts 334°
2026-04-24 20:30 40.18176 -123.87289 8536 ft 116 kts 334°
2026-04-24 20:30 40.18898 -123.87760 8537 ft 116 kts 334°
2026-04-24 20:31 40.19630 -123.88237 8538 ft 116 kts 334°
2026-04-24 20:31 40.20352 -123.88708 8538 ft 116 kts 334°
2026-04-24 20:31 40.21074 -123.89179 8539 ft 116 kts 334°
2026-04-24 20:31 40.21796 -123.89651 8540 ft 116 kts 334°
2026-04-24 20:32 40.22517 -123.90121 8540 ft 116 kts 334°
2026-04-24 20:32 40.23239 -123.90593 8541 ft 116 kts 334°
2026-04-24 20:32 40.23962 -123.91065 8542 ft 116 kts 334°
2026-04-24 20:32 40.24683 -123.91536 8542 ft 116 kts 334°
2026-04-24 20:33 40.25405 -123.92008 8543 ft 116 kts 334°
2026-04-24 20:33 40.26127 -123.92480 8544 ft 116 kts 334°
2026-04-24 20:33 40.26847 -123.92951 8544 ft 116 kts 334°
2026-04-24 20:33 40.27578 -123.93429 8545 ft 116 kts 334°
2026-04-24 20:34 40.28299 -123.93900 8546 ft 116 kts 334°
2026-04-24 20:34 40.29021 -123.94373 8546 ft 116 kts 334°
2026-04-24 20:34 40.29742 -123.94845 8547 ft 116 kts 334°
2026-04-24 20:34 40.30465 -123.95318 8547 ft 116 kts 334°
2026-04-24 20:35 40.31185 -123.95790 8548 ft 116 kts 334°
2026-04-24 20:35 40.31906 -123.96262 8549 ft 116 kts 334°
2026-04-24 20:35 40.32629 -123.96735 8549 ft 116 kts 334°
2026-04-24 20:35 40.33349 -123.97207 8550 ft 116 kts 334°
2026-04-24 20:36 40.34073 -123.97681 8550 ft 116 kts 334°
2026-04-24 20:36 40.34794 -123.98154 8551 ft 116 kts 334°
2026-04-24 20:36 40.35514 -123.98626 8551 ft 116 kts 334°
2026-04-24 20:36 40.36245 -123.99106 8552 ft 116 kts 334°
2026-04-24 20:37 40.36967 -123.99579 8552 ft 116 kts 334°
2026-04-24 20:37 40.37690 -124.00053 8553 ft 116 kts 334°
2026-04-24 20:37 40.38415 -124.00530 8551 ft 118 kts 335°
2026-04-24 20:37 40.39149 -124.01012 8552 ft 119 kts 335°
2026-04-24 20:38 40.39888 -124.01497 8554 ft 119 kts 334°
2026-04-24 20:38 40.40629 -124.01984 8555 ft 119 kts 335°
2026-04-24 20:38 40.41373 -124.02473 8556 ft 120 kts 335°
2026-04-24 20:38 40.42126 -124.02968 8520 ft 123 kts 334°
2026-04-24 20:39 40.42888 -124.03470 8507 ft 123 kts 334°
2026-04-24 20:39 40.43650 -124.03971 8504 ft 122 kts 334°
2026-04-24 20:39 40.44407 -124.04469 8502 ft 122 kts 335°
2026-04-24 20:39 40.45162 -124.04965 8502 ft 121 kts 335°
2026-04-24 20:40 40.45914 -124.05460 8502 ft 121 kts 335°
2026-04-24 20:40 40.46676 -124.05961 8502 ft 121 kts 335°
2026-04-24 20:40 40.47415 -124.06447 8503 ft 121 kts 335°
2026-04-24 20:40 40.48173 -124.06946 8503 ft 120 kts 335°
2026-04-24 20:41 40.48921 -124.07438 8503 ft 120 kts 335°
2026-04-24 20:41 40.49668 -124.07930 8503 ft 120 kts 335°
2026-04-24 20:41 40.50415 -124.08422 8503 ft 120 kts 335°
2026-04-24 20:41 40.51162 -124.08914 8503 ft 120 kts 335°
2026-04-24 20:42 40.51910 -124.09406 8504 ft 120 kts 335°
2026-04-24 20:42 40.52656 -124.09898 8504 ft 120 kts 335°
2026-04-24 20:42 40.53402 -124.10389 8504 ft 120 kts 335°
2026-04-24 20:42 40.54151 -124.10882 8504 ft 120 kts 335°
2026-04-24 20:43 40.54897 -124.11373 8504 ft 120 kts 335°
2026-04-24 20:43 40.55646 -124.11865 8504 ft 120 kts 335°
2026-04-24 20:43 40.56402 -124.12362 8504 ft 120 kts 335°
2026-04-24 20:43 40.57141 -124.12846 8504 ft 120 kts 335°
2026-04-24 20:44 40.57909 -124.13309 8502 ft 120 kts 345°
2026-04-24 20:44 40.58728 -124.13422 8503 ft 119 kts
2026-04-24 20:44 40.59552 -124.13412 8505 ft 118 kts
2026-04-24 20:44 40.60376 -124.13375 8505 ft 118 kts
2026-04-24 20:45 40.61198 -124.13329 8505 ft 119 kts
2026-04-24 20:45 40.62020 -124.13279 8502 ft 119 kts
2026-04-24 20:45 40.62846 -124.13226 8497 ft 119 kts
2026-04-24 20:45 40.63673 -124.13172 8496 ft 119 kts
2026-04-24 20:46 40.64496 -124.13118 8495 ft 119 kts
2026-04-24 20:46 40.65319 -124.13064 8495 ft 119 kts
2026-04-24 20:46 40.66144 -124.13009 8495 ft 118 kts
2026-04-24 20:46 40.66964 -124.12955 8495 ft 118 kts
2026-04-24 20:47 40.67795 -124.12899 8494 ft 118 kts
2026-04-24 20:47 40.68616 -124.12845 8494 ft 118 kts
2026-04-24 20:47 40.69435 -124.12790 8496 ft 118 kts
2026-04-24 20:47 40.70252 -124.12736 8499 ft 118 kts
2026-04-24 20:48 40.71067 -124.12681 8500 ft 118 kts
2026-04-24 20:48 40.71884 -124.12627 8500 ft 118 kts
2026-04-24 20:48 40.72702 -124.12572 8500 ft 118 kts
2026-04-24 20:48 40.73518 -124.12518 8500 ft 118 kts
2026-04-24 20:49 40.74337 -124.12463 8500 ft 118 kts
2026-04-24 20:49 40.75154 -124.12409 8500 ft 118 kts
2026-04-24 20:49 40.75971 -124.12355 8500 ft 118 kts
2026-04-24 20:49 40.76789 -124.12300 8499 ft 118 kts
2026-04-24 20:50 40.77608 -124.12245 8499 ft 118 kts
2026-04-24 20:50 40.78160 -124.12208 8499 ft 118 kts
2026-04-24 20:50 40.78977 -124.12154 8499 ft 118 kts
2026-04-24 20:50 40.79795 -124.12099 8499 ft 118 kts
2026-04-24 20:51 40.80613 -124.12045 8499 ft 118 kts
2026-04-24 20:51 40.81429 -124.11990 8499 ft 118 kts
2026-04-24 20:51 40.82246 -124.11935 8499 ft 118 kts
2026-04-24 20:51 40.83063 -124.11881 8499 ft 118 kts
2026-04-24 20:52 40.83880 -124.11826 8499 ft 118 kts
2026-04-24 20:52 40.84709 -124.11770 8499 ft 118 kts
2026-04-24 20:52 40.85526 -124.11716 8499 ft 118 kts
2026-04-24 20:52 40.86343 -124.11660 8500 ft 118 kts
2026-04-24 20:53 40.87157 -124.11606 8500 ft 117 kts
2026-04-24 20:53 40.87971 -124.11551 8500 ft 117 kts
2026-04-24 20:53 40.88785 -124.11496 8500 ft 117 kts
2026-04-24 20:53 40.89600 -124.11441 8500 ft 117 kts
2026-04-24 20:54 40.90413 -124.11386 8500 ft 117 kts
2026-04-24 20:54 40.91227 -124.11331 8500 ft 117 kts
2026-04-24 20:54 40.92041 -124.11276 8500 ft 117 kts
2026-04-24 20:54 40.92854 -124.11221 8500 ft 117 kts
2026-04-24 20:55 40.93666 -124.11166 8500 ft 117 kts
2026-04-24 20:55 40.94480 -124.11110 8500 ft 117 kts
2026-04-24 20:55 40.95292 -124.11054 8500 ft 117 kts
2026-04-24 20:55 40.96106 -124.10997 8500 ft 117 kts
2026-04-24 20:56 40.96929 -124.10937 8500 ft 117 kts
2026-04-24 20:56 40.97741 -124.10879 8500 ft 117 kts
2026-04-24 20:56 40.98555 -124.10862 8500 ft 117 kts
2026-04-24 20:56 40.99371 -124.10853 8500 ft 117 kts
2026-04-24 20:57 41.00184 -124.10844 8500 ft 117 kts
2026-04-24 20:57 41.00999 -124.10833 8500 ft 117 kts
2026-04-24 20:57 41.01814 -124.10822 8500 ft 117 kts
2026-04-24 20:57 41.02628 -124.10811 8501 ft 117 kts
2026-04-24 20:58 41.03441 -124.10800 8500 ft 117 kts
2026-04-24 20:58 41.04255 -124.10788 8501 ft 117 kts
2026-04-24 20:58 41.05069 -124.10777 8501 ft 117 kts
2026-04-24 20:58 41.05884 -124.10765 8501 ft 117 kts
2026-04-24 20:59 41.06698 -124.10754 8501 ft 117 kts
2026-04-24 20:59 41.07511 -124.10743 8501 ft 117 kts
2026-04-24 20:59 41.08323 -124.10731 8501 ft 117 kts
2026-04-24 20:59 41.09146 -124.10720 8501 ft 117 kts
2026-04-24 21:00 41.09949 -124.10708 8501 ft 117 kts
2026-04-24 21:00 41.10763 -124.10697 8501 ft 117 kts
2026-04-24 21:00 41.11576 -124.10685 8501 ft 117 kts
2026-04-24 21:00 41.12387 -124.10674 8501 ft 117 kts
2026-04-24 21:01 41.13197 -124.10662 8501 ft 117 kts
2026-04-24 21:01 41.14008 -124.10651 8501 ft 117 kts
2026-04-24 21:01 41.14830 -124.10639 8501 ft 117 kts
2026-04-24 21:01 41.15641 -124.10628 8501 ft 117 kts
2026-04-24 21:02 41.16451 -124.10617 8501 ft 117 kts
2026-04-24 21:02 41.17255 -124.10605 8501 ft 117 kts
2026-04-24 21:02 41.18076 -124.10594 8501 ft 117 kts
2026-04-24 21:02 41.18886 -124.10582 8501 ft 117 kts
2026-04-24 21:03 41.19697 -124.10571 8501 ft 117 kts
2026-04-24 21:03 41.20511 -124.10559 8501 ft 117 kts
2026-04-24 21:03 41.21322 -124.10548 8501 ft 117 kts
2026-04-24 21:03 41.22134 -124.10536 8501 ft 117 kts
2026-04-24 21:04 41.22944 -124.10525 8501 ft 117 kts
2026-04-24 21:04 41.23755 -124.10513 8502 ft 117 kts
2026-04-24 21:04 41.24567 -124.10502 8501 ft 117 kts
2026-04-24 21:04 41.25377 -124.10491 8501 ft 117 kts
2026-04-24 21:05 41.26189 -124.10479 8501 ft 117 kts
2026-04-24 21:05 41.27000 -124.10468 8501 ft 117 kts
2026-04-24 21:05 41.27813 -124.10456 8501 ft 117 kts
2026-04-24 21:05 41.28627 -124.10445 8501 ft 117 kts
2026-04-24 21:06 41.29437 -124.10433 8502 ft 117 kts
2026-04-24 21:06 41.30248 -124.10421 8502 ft 117 kts
2026-04-24 21:06 41.31059 -124.10410 8503 ft 117 kts
2026-04-24 21:06 41.31867 -124.10398 8503 ft 116 kts
2026-04-24 21:07 41.32676 -124.10387 8503 ft 116 kts
2026-04-24 21:07 41.33486 -124.10375 8503 ft 116 kts
2026-04-24 21:07 41.34304 -124.10364 8504 ft 116 kts
2026-04-24 21:07 41.35117 -124.10352 8485 ft 118 kts
2026-04-24 21:08 41.35941 -124.10341 8462 ft 119 kts
2026-04-24 21:08 41.36771 -124.10330 8440 ft 120 kts
2026-04-24 21:08 41.37606 -124.10319 8417 ft 121 kts
2026-04-24 21:08 41.38447 -124.10307 8395 ft 121 kts
2026-04-24 21:09 41.39288 -124.10296 8372 ft 121 kts
2026-04-24 21:09 41.40130 -124.10284 8348 ft 122 kts
2026-04-24 21:09 41.40975 -124.10273 8324 ft 122 kts
2026-04-24 21:09 41.41820 -124.10261 8300 ft 122 kts
2026-04-24 21:10 41.42667 -124.10249 8275 ft 122 kts
2026-04-24 21:10 41.43516 -124.10237 8251 ft 122 kts
2026-04-24 21:10 41.44364 -124.10225 8227 ft 122 kts
2026-04-24 21:10 41.45215 -124.10213 8202 ft 122 kts
2026-04-24 21:11 41.46064 -124.10201 8177 ft 122 kts
2026-04-24 21:11 41.46926 -124.10189 8151 ft 122 kts
2026-04-24 21:11 41.47778 -124.10177 8126 ft 123 kts
2026-04-24 21:11 41.48629 -124.10164 8102 ft 123 kts
2026-04-24 21:12 41.49480 -124.10152 8076 ft 123 kts
2026-04-24 21:12 41.50337 -124.10140 8051 ft 123 kts
2026-04-24 21:12 41.51181 -124.10128 8026 ft 123 kts
2026-04-24 21:12 41.52044 -124.10116 8000 ft 123 kts
2026-04-24 21:13 41.52887 -124.10104 7976 ft 123 kts
2026-04-24 21:13 41.53750 -124.10091 7950 ft 123 kts
2026-04-24 21:13 41.54604 -124.10079 7925 ft 123 kts
2026-04-24 21:13 41.55460 -124.10067 7899 ft 123 kts
2026-04-24 21:14 41.56314 -124.10055 7874 ft 123 kts
2026-04-24 21:14 41.57169 -124.10043 7849 ft 123 kts
2026-04-24 21:14 41.58026 -124.10030 7824 ft 123 kts
2026-04-24 21:14 41.58881 -124.10018 7799 ft 123 kts
2026-04-24 21:15 41.59737 -124.10006 7774 ft 123 kts
2026-04-24 21:15 41.60594 -124.09993 7749 ft 123 kts
2026-04-24 21:15 41.61450 -124.09981 7725 ft 123 kts
2026-04-24 21:15 41.62307 -124.09968 7700 ft 123 kts
2026-04-24 21:16 41.63165 -124.09956 7675 ft 123 kts
2026-04-24 21:16 41.64021 -124.09943 7650 ft 123 kts
2026-04-24 21:16 41.64890 -124.09931 7625 ft 123 kts
2026-04-24 21:16 41.65747 -124.09918 7601 ft 123 kts
2026-04-24 21:17 41.66604 -124.09906 7576 ft 123 kts
2026-04-24 21:17 41.67462 -124.09893 7550 ft 124 kts
2026-04-24 21:17 41.68322 -124.09881 7524 ft 124 kts
2026-04-24 21:17 41.69182 -124.09868 7499 ft 124 kts
2026-04-24 21:18 41.70040 -124.09855 7474 ft 124 kts
2026-04-24 21:18 41.70902 -124.09842 7448 ft 124 kts
2026-04-24 21:18 41.71762 -124.09829 7423 ft 124 kts
2026-04-24 21:18 41.72620 -124.09816 7398 ft 124 kts
2026-04-24 21:19 41.73481 -124.09803 7373 ft 124 kts
2026-04-24 21:19 41.74341 -124.09789 7348 ft 124 kts
2026-04-24 21:19 41.75201 -124.09775 7324 ft 124 kts
2026-04-24 21:19 41.76061 -124.09761 7299 ft 124 kts
2026-04-24 21:20 41.77792 -124.09729 7250 ft 124 kts
2026-04-24 21:20 41.78652 -124.09711 7225 ft 124 kts
2026-04-24 21:20 41.79513 -124.09710 7200 ft 124 kts 360°
2026-04-24 21:21 41.80374 -124.09748 7174 ft 124 kts 359°
2026-04-24 21:21 41.81236 -124.09790 7148 ft 124 kts 359°
2026-04-24 21:21 41.82098 -124.09830 7123 ft 124 kts 359°
2026-04-24 21:21 41.82962 -124.09868 7098 ft 124 kts 359°
2026-04-24 21:22 41.83823 -124.09906 7072 ft 124 kts 359°
2026-04-24 21:22 41.84686 -124.09944 7048 ft 124 kts 359°
2026-04-24 21:22 41.85548 -124.09982 7023 ft 124 kts 359°
2026-04-24 21:22 41.86412 -124.10020 6998 ft 124 kts 359°
2026-04-24 21:23 41.87274 -124.10057 6973 ft 124 kts 359°
2026-04-24 21:23 41.88149 -124.10095 6948 ft 124 kts 359°
2026-04-24 21:23 41.89011 -124.10133 6923 ft 124 kts 359°
2026-04-24 21:23 41.89876 -124.10170 6898 ft 124 kts 359°
2026-04-24 21:24 41.90738 -124.10208 6873 ft 124 kts 359°
2026-04-24 21:24 41.91601 -124.10246 6848 ft 124 kts 359°
2026-04-24 21:24 41.92465 -124.10283 6823 ft 124 kts 359°
2026-04-24 21:24 41.93330 -124.10321 6799 ft 124 kts 359°
2026-04-24 21:25 41.94192 -124.10359 6775 ft 124 kts 359°
2026-04-24 21:25 41.95057 -124.10396 6750 ft 124 kts 359°
2026-04-24 21:25 41.95922 -124.10434 6724 ft 125 kts 359°
2026-04-24 21:25 41.96786 -124.10472 6698 ft 125 kts 359°
2026-04-24 21:26 41.97653 -124.10510 6673 ft 125 kts 359°
2026-04-24 21:26 41.98518 -124.10547 6648 ft 125 kts 359°
2026-04-24 21:26 41.99396 -124.10586 6623 ft 125 kts 359°
2026-04-24 21:26 42.00261 -124.10624 6598 ft 125 kts 359°
2026-04-24 21:27 42.01125 -124.10661 6573 ft 125 kts 359°
2026-04-24 21:27 42.01993 -124.10699 6548 ft 125 kts 359°
2026-04-24 21:27 42.02862 -124.10737 6511 ft 126 kts 359°
2026-04-24 21:27 42.03730 -124.10776 6501 ft 124 kts 359°
2026-04-24 21:28 42.04585 -124.10813 6499 ft 123 kts 359°
2026-04-24 21:28 42.05435 -124.10849 6499 ft 122 kts 359°
2026-04-24 21:28 42.06278 -124.10885 6498 ft 121 kts 359°
2026-04-24 21:28 42.07118 -124.10921 6498 ft 121 kts 360°
2026-04-24 21:29 42.07956 -124.10957 6497 ft 120 kts 360°
2026-04-24 21:29 42.08791 -124.10993 6497 ft 120 kts 360°
2026-04-24 21:29 42.09627 -124.11029 6497 ft 120 kts 360°
2026-04-24 21:29 42.10472 -124.11066 6497 ft 120 kts 360°
2026-04-24 21:30 42.11305 -124.11102 6497 ft 120 kts 360°
2026-04-24 21:30 42.12139 -124.11139 6497 ft 120 kts 360°
2026-04-24 21:30 42.12972 -124.11175 6497 ft 120 kts 360°
2026-04-24 21:30 42.13804 -124.11211 6496 ft 120 kts 360°
2026-04-24 21:31 42.14638 -124.11248 6496 ft 120 kts 360°
2026-04-24 21:31 42.15470 -124.11284 6496 ft 120 kts 360°
2026-04-24 21:31 42.16303 -124.11321 6495 ft 120 kts 360°
2026-04-24 21:31 42.17138 -124.11358 6495 ft 120 kts 360°
2026-04-24 21:32 42.17971 -124.11394 6495 ft 120 kts 360°
2026-04-24 21:32 42.18803 -124.11431 6494 ft 120 kts 360°
2026-04-24 21:32 42.19637 -124.11467 6494 ft 120 kts 360°
2026-04-24 21:32 42.20469 -124.11504 6494 ft 120 kts 360°
2026-04-24 21:33 42.21314 -124.11541 6493 ft 120 kts 360°
2026-04-24 21:33 42.21865 -124.11565 6493 ft 120 kts 360°
2026-04-24 21:33 42.22979 -124.11614 6492 ft 120 kts 360°
2026-04-24 21:33 42.23813 -124.11651 6492 ft 120 kts 360°
2026-04-24 21:34 42.24646 -124.11687 6491 ft 120 kts 360°
2026-04-24 21:34 42.25477 -124.11724 6491 ft 120 kts 360°
2026-04-24 21:34 42.26311 -124.11761 6491 ft 120 kts 360°
2026-04-24 21:34 42.27022 -124.11792 6490 ft 120 kts 360°
2026-04-24 21:35 42.27470 -124.11812 6490 ft 120 kts 360°
2026-04-24 21:35 42.28302 -124.11848 6495 ft 119 kts 360°
2026-04-24 21:35 42.29131 -124.11885 6499 ft 119 kts 360°
2026-04-24 21:35 42.29960 -124.11921 6499 ft 119 kts 360°
2026-04-24 21:36 42.30800 -124.11958 6499 ft 120 kts 360°
2026-04-24 21:36 42.31630 -124.11995 6499 ft 120 kts 360°
2026-04-24 21:36 42.32461 -124.12031 6499 ft 120 kts 360°
2026-04-24 21:36 42.33292 -124.12068 6498 ft 120 kts 360°
2026-04-24 21:37 42.34123 -124.12105 6498 ft 120 kts 360°
2026-04-24 21:37 42.34954 -124.12141 6498 ft 120 kts 360°
2026-04-24 21:37 42.35785 -124.12178 6497 ft 120 kts 360°
2026-04-24 21:37 42.36617 -124.12215 6497 ft 120 kts 360°
2026-04-24 21:38 42.37447 -124.12251 6497 ft 120 kts 360°
2026-04-24 21:38 42.38278 -124.12288 6496 ft 120 kts 360°
2026-04-24 21:38 42.39108 -124.12325 6496 ft 120 kts 360°
2026-04-24 21:38 42.39940 -124.12361 6494 ft 120 kts 360°
2026-04-24 21:39 42.40771 -124.12399 6493 ft 120 kts
2026-04-24 21:39 42.41612 -124.12436 6493 ft 119 kts
2026-04-24 21:39 42.42441 -124.12472 6490 ft 120 kts
2026-04-24 21:39 42.43273 -124.12509 6489 ft 120 kts
2026-04-24 21:40 42.44101 -124.12545 6489 ft 119 kts
2026-04-24 21:40 42.44930 -124.12582 6489 ft 119 kts
2026-04-24 21:40 42.45757 -124.12619 6489 ft 119 kts
2026-04-24 21:40 42.46585 -124.12655 6489 ft 119 kts
2026-04-24 21:41 42.47413 -124.12692 6488 ft 119 kts
2026-04-24 21:41 42.48240 -124.12728 6488 ft 119 kts
2026-04-24 21:41 42.49068 -124.12765 6488 ft 119 kts
2026-04-24 21:41 42.49894 -124.12802 6488 ft 119 kts
2026-04-24 21:42 42.50721 -124.12838 6488 ft 119 kts
2026-04-24 21:42 42.51549 -124.12875 6488 ft 119 kts
2026-04-24 21:42 42.52384 -124.12912 6488 ft 119 kts
2026-04-24 21:42 42.53211 -124.12949 6488 ft 119 kts
2026-04-24 21:43 42.54035 -124.12985 6488 ft 119 kts
2026-04-24 21:43 42.54859 -124.13022 6488 ft 119 kts
2026-04-24 21:43 42.55683 -124.13058 6488 ft 119 kts
2026-04-24 21:43 42.56508 -124.13095 6489 ft 119 kts
2026-04-24 21:44 42.57331 -124.13131 6488 ft 119 kts
2026-04-24 21:44 42.58153 -124.13168 6488 ft 119 kts
2026-04-24 21:44 42.58978 -124.13204 6488 ft 119 kts
2026-04-24 21:44 42.59800 -124.13241 6488 ft 119 kts
2026-04-24 21:45 42.60623 -124.13278 6490 ft 118 kts
2026-04-24 21:45 42.61444 -124.13314 6492 ft 118 kts
2026-04-24 21:45 42.61998 -124.13339 6493 ft 118 kts
2026-04-24 21:45 42.62821 -124.13375 6493 ft 118 kts
2026-04-24 21:46 42.63641 -124.13412 6493 ft 118 kts
2026-04-24 21:46 42.64465 -124.13448 6494 ft 118 kts
2026-04-24 21:46 42.65286 -124.13485 6494 ft 118 kts
2026-04-24 21:46 42.66108 -124.13521 6494 ft 118 kts
2026-04-24 21:47 42.66929 -124.13558 6494 ft 118 kts
2026-04-24 21:47 42.67752 -124.13595 6494 ft 118 kts
2026-04-24 21:47 42.68572 -124.13632 6496 ft 118 kts
2026-04-24 21:47 42.69390 -124.13668 6499 ft 118 kts
2026-04-24 21:48 42.70209 -124.13704 6500 ft 118 kts
2026-04-24 21:48 42.71036 -124.13741 6501 ft 118 kts
2026-04-24 21:48 42.71854 -124.13777 6501 ft 118 kts
2026-04-24 21:48 42.72670 -124.13814 6501 ft 118 kts
2026-04-24 21:49 42.73488 -124.13850 6501 ft 118 kts
2026-04-24 21:49 42.74305 -124.13887 6501 ft 118 kts
2026-04-24 21:49 42.75123 -124.13923 6501 ft 118 kts
2026-04-24 21:49 42.75941 -124.13960 6501 ft 118 kts
2026-04-24 21:50 42.76757 -124.13996 6502 ft 118 kts
2026-04-24 21:50 42.77576 -124.14033 6501 ft 118 kts
2026-04-24 21:50 42.78390 -124.14069 6502 ft 117 kts
2026-04-24 21:50 42.79206 -124.14106 6502 ft 117 kts
2026-04-24 21:51 42.80020 -124.14142 6502 ft 117 kts
2026-04-24 21:51 42.80845 -124.14179 6502 ft 117 kts
2026-04-24 21:51 42.81658 -124.14215 6502 ft 117 kts
2026-04-24 21:51 42.82473 -124.14251 6502 ft 117 kts
2026-04-24 21:52 42.83286 -124.14288 6503 ft 117 kts
2026-04-24 21:52 42.84100 -124.14324 6503 ft 117 kts
2026-04-24 21:52 42.84915 -124.14361 6503 ft 117 kts
2026-04-24 21:52 42.85727 -124.14397 6503 ft 117 kts
2026-04-24 21:53 42.86540 -124.14433 6501 ft 117 kts
2026-04-24 21:53 42.87360 -124.14470 6478 ft 119 kts
2026-04-24 21:53 42.88189 -124.14508 6454 ft 120 kts
2026-04-24 21:53 42.89035 -124.14548 6431 ft 120 kts
2026-04-24 21:54 42.89872 -124.14586 6407 ft 121 kts
2026-04-24 21:54 42.90711 -124.14624 6383 ft 121 kts
2026-04-24 21:54 42.91552 -124.14662 6359 ft 121 kts
2026-04-24 21:54 42.92391 -124.14700 6335 ft 121 kts
2026-04-24 21:55 42.93235 -124.14738 6311 ft 121 kts
2026-04-24 21:55 42.94076 -124.14776 6286 ft 121 kts
2026-04-24 21:55 42.94920 -124.14814 6256 ft 122 kts
2026-04-24 21:55 42.95759 -124.14853 6177 ft 114 kts
2026-04-24 21:56 42.96511 -124.14885 6087 ft 103 kts
2026-04-24 21:56 42.97205 -124.14908 5990 ft 98 kts
2026-04-24 21:56 42.97886 -124.14931 5899 ft 99 kts
2026-04-24 21:56 42.98575 -124.14959 5817 ft 99 kts
2026-04-24 21:57 42.99277 -124.14989 5737 ft 100 kts
2026-04-24 21:57 42.99983 -124.15022 5665 ft 103 kts
2026-04-24 21:57 43.00700 -124.15055 5596 ft 104 kts
2026-04-24 21:57 43.01426 -124.15089 5526 ft 105 kts
2026-04-24 21:58 43.02156 -124.15122 5456 ft 106 kts
2026-04-24 21:58 43.02890 -124.15155 5385 ft 106 kts
2026-04-24 21:58 43.03626 -124.15165 5314 ft 106 kts
2026-04-24 21:58 43.04367 -124.15183 5242 ft 107 kts
2026-04-24 21:59 43.05107 -124.15209 5170 ft 107 kts
2026-04-24 21:59 43.05850 -124.15239 5097 ft 107 kts
2026-04-24 21:59 43.06593 -124.15271 5024 ft 107 kts
2026-04-24 21:59 43.07340 -124.15304 4952 ft 108 kts
2026-04-24 22:00 43.08109 -124.15338 4880 ft 110 kts
2026-04-24 22:00 43.08874 -124.15372 4806 ft 110 kts
2026-04-24 22:00 43.09634 -124.15407 4733 ft 109 kts
2026-04-24 22:00 43.10388 -124.15441 4659 ft 109 kts
2026-04-24 22:01 43.11136 -124.15475 4583 ft 107 kts
2026-04-24 22:01 43.11880 -124.15508 4522 ft 106 kts
2026-04-24 22:01 43.12608 -124.15542 4505 ft 103 kts
2026-04-24 22:01 43.13324 -124.15574 4500 ft 103 kts
2026-04-24 22:02 43.14045 -124.15607 4501 ft 104 kts
2026-04-24 22:02 43.14772 -124.15639 4501 ft 105 kts
2026-04-24 22:02 43.15501 -124.15672 4501 ft 104 kts
2026-04-24 22:02 43.16222 -124.15705 4484 ft 105 kts
2026-04-24 22:03 43.16962 -124.15738 4362 ft 106 kts
2026-04-24 22:03 43.17698 -124.15771 4230 ft 106 kts
2026-04-24 22:03 43.18441 -124.15805 4100 ft 107 kts
2026-04-24 22:03 43.19183 -124.15839 3967 ft 105 kts
2026-04-24 22:04 43.19806 -124.15867 3855 ft 103 kts
2026-04-24 22:04 43.20524 -124.15899 3732 ft 105 kts
2026-04-24 22:04 43.21269 -124.15932 3607 ft 109 kts
2026-04-24 22:04 43.22026 -124.15966 3483 ft 109 kts
2026-04-24 22:05 43.22767 -124.16001 3351 ft 105 kts
2026-04-24 22:05 43.23484 -124.16034 3210 ft 100 kts
2026-04-24 22:05 43.24166 -124.16065 3075 ft 97 kts
2026-04-24 22:05 43.24845 -124.16095 2945 ft 98 kts
2026-04-24 22:06 43.25526 -124.16125 2818 ft 98 kts
2026-04-24 22:06 43.26205 -124.16156 2691 ft 97 kts
2026-04-24 22:06 43.26879 -124.16190 2544 ft 99 kts 359°
2026-04-24 22:06 43.27560 -124.16289 2448 ft 98 kts 354°
2026-04-24 22:07 43.28252 -124.16427 2299 ft 98 kts 356°
2026-04-24 22:07 43.28893 -124.16537 2163 ft 91 kts 358°
2026-04-24 22:07 43.29510 -124.16621 2023 ft 88 kts 356°
2026-04-24 22:07 43.30093 -124.16716 2020 ft 78 kts 354°
2026-04-24 22:08 43.30624 -124.16838 1944 ft 81 kts 351°
2026-04-24 22:08 43.31188 -124.17002 1878 ft 82 kts 349°
2026-04-24 22:08 43.31737 -124.17246 1789 ft 86 kts 339°
2026-04-24 22:08 43.32272 -124.17630 1722 ft 85 kts 337°
2026-04-24 22:09 43.32789 -124.17979 1636 ft 83 kts 337°
2026-04-24 22:09 43.33305 -124.18338 1542 ft 81 kts 338°
2026-04-24 22:09 43.33803 -124.18653 1475 ft 78 kts 339°
2026-04-24 22:09 43.34286 -124.18937 1451 ft 75 kts 340°
2026-04-24 22:10 43.34764 -124.19212 1469 ft 73 kts 340°
2026-04-24 22:10 43.35229 -124.19496 1475 ft 74 kts 338°
2026-04-24 22:10 43.35694 -124.19799 1499 ft 74 kts 338°
2026-04-24 22:10 43.36162 -124.20126 1442 ft 77 kts 336°
2026-04-24 22:11 43.36639 -124.20467 1347 ft 78 kts 336°
2026-04-24 22:11 43.37115 -124.20814 1279 ft 77 kts 335°
2026-04-24 22:11 43.37585 -124.21162 1186 ft 78 kts 335°
2026-04-24 22:11 43.38066 -124.21506 1019 ft 76 kts 335°
2026-04-24 22:12 43.38510 -124.21849 841 ft 71 kts 333°
2026-04-24 22:12 43.38939 -124.22188 664 ft 69 kts 333°
2026-04-24 22:12 43.39349 -124.22497 525 ft 67 kts 333°
2026-04-24 22:12 43.39743 -124.22814 399 ft 63 kts 330°
2026-04-24 22:13 43.40111 -124.23117 282 ft 60 kts 330°
2026-04-24 22:13 43.40459 -124.23398 185 ft 56 kts 330°
2026-04-24 22:13 43.40797 -124.23676 105 ft 56 kts 330°
2026-04-24 22:13 43.41111 -124.23927 29 ft 47 kts 331°
2026-04-24 22:14 43.41350 -124.24117 21 ft 32 kts 330°
2026-04-24 22:14 43.41497 -124.24235 21 ft 14 kts 328°
2026-04-24 22:14 43.41539 -124.24292 21 ft 7 kts 273°
2026-04-24 22:14 43.41527 -124.24333 21 ft 0 kts 238°
2026-04-24 22:16 43.41515 -124.24359 21 ft 8 kts 236°
2026-04-24 22:16 43.41492 -124.24386 21 ft 9 kts 183°
2026-04-24 22:16 43.41416 -124.24327 21 ft 15 kts 146°
2026-04-24 22:16 43.41329 -124.24253 21 ft 15 kts 150°
2026-04-24 22:17 43.41254 -124.24196 21 ft 12 kts 154°
2026-04-24 22:17 43.41207 -124.24242 21 ft 8 kts 238°
2026-04-24 22:17 43.41206 -124.24280 21 ft 1 kts